EW9168 Weather Reports


Display with metric or nautical units.
time (UTC)temp
F
wind
direction
speed
MPH
gust
MPH
rain 1hr
in
rain 24hr
in
rain mn
in
humidity
%
barometer
mb
20260510065042 48 113 4.0 10.0 0.00 0.06 0.00 94 1010.0
20260510064021 48 113 4.0 10.0 0.00 0.06 0.00 94 1010.0
20260510063018 47 113 5.0 10.0 0.00 0.06 0.00 94 1009.8
20260510062019 47 113 3.0 7.0 0.00 0.06 0.00 94 1010.1
20260510061022 47 113 4.0 11.0 0.00 0.06 0.00 94 1010.2
20260510060042 47 113 5.0 12.0 0.00 0.06 0.00 96 1010.2
20260510055022 46 113 5.0 11.0 0.00 0.06 0.00 95 1010.2
20260510054022 46 113 5.0 9.0 0.00 0.06 0.00 95 1010.4
20260510053025 46 90 4.0 9.0 0.00 0.06 0.00 95 1010.4
20260510052038 46 113 4.0 10.0 0.00 0.06 0.00 95 1010.3
20260510051019 46 113 5.0 11.0 0.00 0.06 0.00 95 1010.7
20260510050042 46 135 4.0 8.0 0.00 0.06 0.00 95 1010.8
20260510045042 46 135 5.0 11.0 0.00 0.06 0.00 95 1010.7
20260510044021 46 113 5.0 11.0 0.00 0.06 0.00 95 1010.5
20260510043020 46 135 5.0 11.0 0.00 0.06 0.00 95 1010.5
20260510042042 47 135 5.0 13.0 0.00 0.06 0.00 94 1010.6
20260510041018 47 135 5.0 12.0 0.00 0.06 0.00 94 1010.6
20260510040021 47 135 7.0 14.0 0.00 0.06 0.06 94 1010.5
20260510035021 47 135 6.0 12.0 0.00 0.06 0.06 94 1010.6
20260510034022 47 135 6.0 14.0 0.00 0.06 0.06 94 1010.5
20260510033021 47 113 7.0 14.0 0.00 0.06 0.06 93 1010.6
20260510032017 47 135 6.0 12.0 0.00 0.06 0.06 94 1010.7
20260510031017 46 113 6.0 13.0 0.00 0.06 0.06 94 1010.8
20260510030021 46 113 6.0 11.0 0.00 0.06 0.06 94 1010.9
20260510025021 46 135 5.0 11.0 0.00 0.06 0.06 93 1010.8
20260510024041 46 113 6.0 14.0 0.00 0.06 0.06 93 1011.0
20260510023022 46 135 6.0 11.0 0.00 0.06 0.06 93 1011.1
20260510022021 46 135 5.0 11.0 0.00 0.06 0.06 93 1011.2
20260510021017 46 113 6.0 13.0 0.00 0.06 0.06 93 1011.1
20260510020017 46 113 5.0 12.0 0.00 0.06 0.06 93 1011.2
20260510015041 46 113 5.0 11.0 0.00 0.06 0.06 93 1011.4
20260510014042 46 113 6.0 12.0 0.00 0.06 0.06 93 1011.3
20260510013021 46 113 5.0 11.0 0.00 0.06 0.06 93 1011.3
20260510012021 46 135 5.0 10.0 0.00 0.06 0.06 93 1011.3
20260510011021 46 113 6.0 11.0 0.00 0.06 0.06 93 1011.1
20260510010017 47 113 6.0 12.0 0.00 0.06 0.06 93 1011.2
20260510005021 47 135 5.0 10.0 0.00 0.06 0.06 92 1011.2
20260510004021 46 135 5.0 12.0 0.00 0.06 0.06 93 1010.9
20260510003021 46 113 5.0 10.0 0.00 0.06 0.06 93 1010.9
20260510002022 46 113 6.0 13.0 0.00 0.06 0.06 93 1010.8
20260510001019 46 113 5.0 10.0 0.00 0.06 0.06 93 1010.5
20260510000021 47 113 6.0 13.0 0.00 0.06 0.06 92 1010.4
20260509235017 47 113 3.0 8.0 0.00 0.06 0.06 92 1010.3
20260509234021 47 113 4.0 9.0 0.00 0.06 0.06 92 1010.0
20260509233021 47 113 4.0 11.0 0.00 0.06 0.06 92 1009.9
20260509232021 47 113 7.0 17.0 0.00 0.06 0.06 92 1009.9
20260509231021 46 113 7.0 15.0 0.00 0.06 0.06 92 1009.8
20260509230041 46 113 7.0 15.0 0.00 0.06 0.06 93 1009.8
20260509225022 46 113 8.0 18.0 0.00 0.06 0.06 93 1009.8
20260509224017 46 113 7.0 16.0 0.00 0.06 0.06 93 1009.9
20260509223021 47 113 5.0 11.0 0.00 0.06 0.06 94 1010.0
20260509222021 47 135 4.0 10.0 0.00 0.06 0.06 94 1010.1
20260509221021 47 113 3.0 9.0 0.00 0.06 0.06 94 1010.3
20260509220021 47 113 3.0 6.0 0.00 0.06 0.06 93 1010.4
20260509215022 47 113 5.0 11.0 0.00 0.06 0.06 92 1010.4
20260509214042 47 113 4.0 8.0 0.00 0.06 0.06 92 1010.6
20260509213017 47 180 2.0 8.0 0.00 0.06 0.06 92 1010.6
20260509212021 47 135 3.0 7.0 0.00 0.06 0.06 92 1010.5
20260509211021 47 180 3.0 7.0 0.00 0.06 0.06 93 1010.6
20260509210022 47 180 1.0 5.0 0.00 0.06 0.06 93 1010.5
20260509205021 47 135 2.0 8.0 0.00 0.06 0.06 92 1010.6
20260509204022 46 135 3.0 7.0 0.00 0.06 0.06 93 1010.6
20260509203037 47 113 3.0 7.0 0.00 0.06 0.06 92 1010.6
20260509202017 47 135 4.0 10.0 0.00 0.06 0.06 92 1010.7
20260509201022 47 135 5.0 10.0 0.00 0.06 0.06 92 1010.7
20260509200021 47 135 5.0 12.0 0.00 0.06 0.06 92 1010.7
20260509195021 46 135 6.0 12.0 0.00 0.06 0.06 92 1010.7
20260509194022 46 135 5.0 12.0 0.00 0.06 0.06 93 1011.0
20260509193021 46 113 6.0 10.0 0.01 0.06 0.06 93 1011.1
20260509192017 46 113 6.0 10.0 0.02 0.06 0.06 94 1011.0
20260509191017 46 113 6.0 11.0 0.02 0.06 0.06 93 1011.0
20260509190021 47 113 7.0 14.0 0.03 0.06 0.06 92 1011.2
20260509185021 47 113 7.0 13.0 0.04 0.06 0.06 92 1011.2
20260509184021 47 113 8.0 14.0 0.04 0.06 0.06 92 1011.4
20260509183042 48 113 6.0 12.0 0.03 0.05 0.05 92 1011.5
20260509182021 48 135 6.0 11.0 0.02 0.04 0.04 91 1011.5
20260509181017 48 135 5.0 11.0 0.02 0.04 0.04 90 1011.6
20260509180021 48 113 6.0 14.0 0.01 0.03 0.03 89 1011.7
20260509175021 49 135 4.0 10.0 0.00 0.02 0.02 89 1011.9
20260509174021 49 158 4.0 8.0 0.00 0.02 0.02 88 1011.9
20260509173021 49 135 4.0 11.0 0.00 0.02 0.02 89 1011.9
20260509172021 49 135 4.0 10.0 0.00 0.02 0.02 90 1012.1
20260509171021 48 113 4.0 11.0 0.00 0.02 0.02 90 1012.2
20260509170017 48 135 4.0 10.0 0.00 0.02 0.02 88 1012.2
20260509165021 48 135 4.0 10.0 0.01 0.02 0.02 88 1012.3
20260509164041 48 113 5.0 10.0 0.01 0.02 0.02 87 1012.4
20260509163021 48 135 4.0 9.0 0.02 0.02 0.02 87 1012.4
20260509162021 48 135 4.0 13.0 0.02 0.02 0.02 86 1012.5
20260509161021 48 113 3.0 8.0 0.02 0.02 0.02 84 1012.6
20260509160021 49 180 2.0 9.0 0.02 0.02 0.02 80 1012.9
20260509155037 49 180 1.0 5.0 0.01 0.01 0.01 81 1013.0
20260509154021 50 180 1.0 5.0 0.01 0.01 0.01 77 1013.0
20260509153021 50 180 3.0 7.0 0.00 0.00 0.00 73 1013.2
20260509152021 51 180 4.0 8.0 0.00 0.00 0.00 69 1013.1
20260509151021 52 203 3.0 10.0 0.00 0.00 0.00 61 1013.0
20260509150021 52 135 2.0 10.0 0.00 0.00 0.00 58 1012.9
20260509145017 52 135 3.0 7.0 0.00 0.00 0.00 55 1012.9
20260509144017 52 135 3.0 10.0 0.00 0.00 0.00 56 1012.8
20260509143021 52 180 1.0 6.0 0.00 0.00 0.00 57 1012.9
20260509142021 52 203 5.0 14.0 0.00 0.00 0.00 55 1012.9
20260509141121 52 180 3.0 10.0 0.00 0.00 0.00 57 1012.9
20260509140021 52 135 3.0 9.0 0.00 0.00 0.00 55 1013.0
20260509135021 52 135 4.0 9.0 0.00 0.00 0.00 58 1013.1
20260509134017 52 135 3.0 10.0 0.00 0.00 0.00 57 1013.0
20260509133017 52 135 3.0 11.0 0.00 0.00 0.00 58 1013.1
20260509132021 52 135 4.0 10.0 0.00 0.00 0.00 56 1013.1
20260509131021 52 180 2.0 8.0 0.00 0.00 0.00 55 1013.2
20260509130042 51 180 1.0 6.0 0.00 0.00 0.00 61 1013.2
20260509125019 50 180 1.0 3.0 0.00 0.00 0.00 64 1013.3
20260509124041 49 180 1.0 4.0 0.00 0.00 0.00 64 1013.4
20260509123017 49 135 1.0 5.0 0.00 0.00 0.00 64 1013.5
20260509122021 47 135 1.0 4.0 0.00 0.00 0.00 70 1013.6
20260509121021 45 0.0 3.0 0.00 0.00 0.00 72 1013.6
20260509120021 43 0.0 1.0 0.00 0.00 0.00 79 1013.7
20260509115041 42 0.0 1.0 0.00 0.00 0.00 81 1013.8
20260509114041 40 0.0 1.0 0.00 0.00 0.00 83 1013.8
20260509113021 39 0.0 3.0 0.00 0.00 0.00 85 1013.8
20260509112017 38 0.0 2.0 0.00 0.00 0.00 87 1013.8
20260509111021 36 0.0 0.0 0.00 0.00 0.00 87 1013.7
20260509110021 34 0.0 0.0 0.00 0.00 0.00 90 1013.7
20260509105021 33 0.0 0.0 0.00 0.00 0.00 93 1013.6
20260509104021 32 0.0 0.0 0.00 0.00 0.00 93 1013.5
20260509103021 32 0.0 0.0 0.00 0.00 0.00 93 1013.3
20260509102021 32 0.0 0.0 0.00 0.00 0.00 91 1013.3
20260509101017 32 0.0 0.0 0.00 0.00 0.00 90 1013.1
20260509100021 32 0.0 0.0 0.00 0.00 0.00 92 1013.0
20260509095021 32 0.0 0.0 0.00 0.00 0.00 91 1013.0
20260509094021 33 0.0 0.0 0.00 0.00 0.00 89 1012.8
20260509093022 33 0.0 0.0 0.00 0.00 0.00 88 1012.6
20260509092021 34 0.0 0.0 0.00 0.00 0.00 89 1012.5
20260509091102 34 0.0 0.0 0.00 0.00 0.00 89 1012.4
20260509090018 34 0.0 0.0 0.00 0.00 0.00 87 1012.5
20260509085021 34 0.0 0.0 0.00 0.00 0.00 87 1012.2
20260509084042 34 0.0 0.0 0.00 0.00 0.00 87 1012.2
20260509083102 34 0.0 0.0 0.00 0.00 0.00 87 1012.3
20260509082021 34 0.0 0.0 0.00 0.00 0.00 87 1012.5
20260509081021 34 0.0 0.0 0.00 0.00 0.00 87 1012.6
20260509080021 34 0.0 0.0 0.00 0.00 0.00 86 1012.5
20260509075017 35 0.0 0.0 0.00 0.00 0.00 84 1012.5
20260509074042 35 0.0 0.0 0.00 0.00 0.00 86 1012.5
20260509073021 35 0.0 0.0 0.00 0.00 0.00 86 1012.6
20260509072021 35 0.0 0.0 0.00 0.00 0.00 86 1012.6
20260509071041 35 0.0 0.0 0.00 0.00 0.00 85 1012.6
20260509070021 35 0.0 0.0 0.00 0.00 0.00 85 1012.6